KC4KQE Weather Reports


Display with metric or nautical units.
time (UTC)temp
F
wind
direction
speed
MPH
gust
MPH
rain 1hr
in
rain 24hr
in
rain mn
in
humidity
%
barometer
mb
20200926144453 79 80 0.0 0.0 0.00 0.00 0.00 31 1013.8
20200926143945 78 79 0.0 0.0 0.00 0.00 0.00 31 1013.8
20200926142439 75 80 0.0 0.0 0.00 0.00 0.00 36 1013.6
20200926141942 74 80 0.0 0.0 0.00 0.00 0.00 34 1013.6
20200926141442 73 80 0.0 0.0 0.00 0.00 0.00 35 1013.6
20200926140939 73 80 0.0 0.0 0.00 0.00 0.00 35 1013.6
20200926140443 72 80 0.0 0.0 0.00 0.00 0.00 35 1013.6
20200926135942 71 80 0.0 0.0 0.00 0.00 0.00 36 1013.6
20200926135440 71 80 0.0 0.0 0.00 0.00 0.00 36 1013.6
20200926134944 71 80 0.0 0.0 0.00 0.00 0.00 35 1013.5
20200926133943 71 80 0.0 0.0 0.00 0.00 0.00 34 1013.5
20200926131940 72 0 0.0 0.0 0.00 0.00 0.00 32 1013.5
20200926131439 73 82 0.0 2.0 0.00 0.00 0.00 31 1013.5
20200926130939 73 83 1.0 2.0 0.00 0.00 0.00 31 1013.4
20200926130442 74 80 0.0 0.0 0.00 0.00 0.00 31 1013.5
20200926125947 75 80 0.0 0.0 0.00 0.00 0.00 30 1013.4
20200926125440 75 80 0.0 3.0 0.00 0.00 0.00 30 1013.4
20200926124946 74 71 2.0 2.0 0.00 0.00 0.00 31 1013.4
20200926124443 73 71 1.0 2.0 0.00 0.00 0.00 32 1013.4
20200926123940 70 33 0.0 2.0 0.00 0.00 0.00 35 1013.3
20200926123440 70 23 0.0 1.0 0.00 0.00 0.00 36 1013.3
20200926122940 70 23 0.0 1.0 0.00 0.00 0.00 36 1013.3
20200926122439 69 22 0.0 0.0 0.00 0.00 0.00 36 1013.3
20200926120939 70 22 0.0 0.0 0.00 0.00 0.00 35 1013.3
20200926120440 70 22 0.0 0.0 0.00 0.00 0.00 35 1013.2
20200926115943 70 22 0.0 0.0 0.00 0.00 0.00 35 1013.3
20200926115439 70 22 0.0 0.0 0.00 0.00 0.00 35 1013.2
20200926114939 70 22 0.0 0.0 0.00 0.00 0.00 35 1013.2
20200926114442 70 22 0.0 0.0 0.00 0.00 0.00 35 1013.2
20200926113952 71 22 0.0 0.0 0.00 0.00 0.00 34 1013.2
20200926112940 71 22 0.0 0.0 0.00 0.00 0.00 34 1013.2
20200926112442 71 22 0.0 0.0 0.00 0.00 0.00 33 1013.1
20200926111941 72 22 0.0 0.0 0.00 0.00 0.00 33 1013.1
20200926111439 73 22 0.0 0.0 0.00 0.00 0.00 32 1013.1
20200926110439 74 22 0.0 0.0 0.00 0.00 0.00 31 1013.2
20200926105443 74 24 0.0 0.0 0.00 0.00 0.00 31 1013.1
20200926104940 74 22 0.0 0.0 0.00 0.00 0.00 30 1013.2
20200926103440 75 22 0.0 0.0 0.00 0.00 0.00 30 1013.1
20200926102946 75 22 0.0 0.0 0.00 0.00 0.00 29 1013.2
20200926102439 76 22 0.0 1.0 0.00 0.00 0.00 29 1013.1
20200926101941 75 22 0.0 0.0 0.00 0.00 0.00 30 1013.1
20200926100943 76 22 0.0 1.0 0.00 0.00 0.00 29 1013.1
20200926100439 77 22 0.0 0.0 0.00 0.00 0.00 29 1013.2
20200926095944 77 22 0.0 0.0 0.00 0.00 0.00 28 1013.1
20200926095439 77 22 0.0 1.0 0.00 0.00 0.00 28 1013.1
20200926094939 77 22 0.0 0.0 0.00 0.00 0.00 27 1013.1
20200926094445 77 22 0.0 0.0 0.00 0.00 0.00 28 1013.2
20200926092940 79 22 0.0 1.0 0.00 0.00 0.00 26 1013.0
20200926092439 78 22 0.0 2.0 0.00 0.00 0.00 26 1013.0
20200926091939 79 22 2.0 2.0 0.00 0.00 0.00 26 1013.0
20200926091442 79 21 0.0 0.0 0.00 0.00 0.00 26 1013.0
20200926090940 79 22 0.0 0.0 0.00 0.00 0.00 26 1013.0
20200926085939 79 22 0.0 0.0 0.00 0.00 0.00 26 1012.8
20200926084442 80 22 0.0 0.0 0.00 0.00 0.00 25 1012.8
20200926083941 80 22 0.0 1.0 0.00 0.00 0.00 25 1012.8
20200926083443 80 22 0.0 2.0 0.00 0.00 0.00 25 1012.7
20200926082939 79 21 0.0 1.0 0.00 0.00 0.00 26 1012.8
20200926080942 81 20 0.0 4.0 0.00 0.00 0.00 24 1012.7
20200926075940 81 22 3.0 2.0 0.00 0.00 0.00 24 1012.6
20200926074943 80 355 0.0 1.0 0.00 0.00 0.00 24 1012.6
20200926074440 79 355 0.0 1.0 0.00 0.00 0.00 24 1012.6
20200926073940 80 355 1.0 3.0 0.00 0.00 0.00 24 1012.6
20200926073439 80 339 0.0 0.0 0.00 0.00 0.00 24 1012.5
20200926072942 80 339 0.0 2.0 0.00 0.00 0.00 24 1012.6
20200926072439 80 338 0.0 2.0 0.00 0.00 0.00 24 1012.5
20200926071941 80 316 1.0 1.0 0.00 0.00 0.00 24 1012.5
20200926070950 81 293 0.0 3.0 0.00 0.00 0.00 23 1012.5
20200926070440 80 284 1.0 10.0 0.00 0.00 0.00 23 1012.6
20200926065944 81 44 0.0 2.0 0.00 0.00 0.00 23 1012.3
20200926065441 82 44 0.0 3.0 0.00 0.00 0.00 23 1012.3
20200926064441 82 46 0.0 4.0 0.00 0.00 0.00 22 1012.3
20200926063939 83 44 1.0 3.0 0.00 0.00 0.00 22 1012.3
20200926063446 82 45 2.0 4.0 0.00 0.00 0.00 22 1012.3
20200926062942 82 44 1.0 2.0 0.00 0.00 0.00 22 1012.3
20200926062441 82 44 0.0 3.0 0.00 0.00 0.00 22 1012.4
20200926061940 82 43 1.0 2.0 0.00 0.00 0.00 22 1012.3
20200926061440 82 44 0.0 3.0 0.00 0.00 0.00 22 1012.4
20200926060440 82 44 1.0 4.0 0.00 0.00 0.00 22 1012.5
20200926055940 82 44 2.0 3.0 0.00 0.00 0.00 22 1012.5
20200926055443 82 44 0.0 0.0 0.00 0.00 0.00 23 1012.4
20200926053439 83 45 1.0 3.0 0.00 0.00 0.00 21 1012.4
20200926052939 84 44 1.0 3.0 0.00 0.00 0.00 21 1012.4
20200926052439 84 44 1.0 3.0 0.00 0.00 0.00 21 1012.4
20200926051940 85 44 1.0 3.0 0.00 0.00 0.00 20 1012.4
20200926051444 85 47 1.0 4.0 0.00 0.00 0.00 20 1012.4
20200926050939 84 44 2.0 3.0 0.00 0.00 0.00 21 1012.3
20200926050447 85 44 0.0 0.0 0.00 0.00 0.00 20 1012.2
20200926045939 86 44 0.0 0.0 0.00 0.00 0.00 19 1012.2
20200926044939 88 44 1.0 2.0 0.00 0.00 0.00 19 1012.2
20200926044442 88 44 2.0 2.0 0.00 0.00 0.00 19 1012.1
20200926043940 88 46 2.0 3.0 0.00 0.00 0.00 19 1012.1
20200926043440 88 44 1.0 5.0 0.00 0.00 0.00 18 1012.0
20200926042439 89 0 2.0 5.0 0.00 0.00 0.00 18 1012.0
20200926041940 89 41 0.0 5.0 0.00 0.00 0.00 18 1011.9
20200926041444 89 40 2.0 4.0 0.00 0.00 0.00 18 1011.9
20200926040442 89 42 3.0 4.0 0.00 0.00 0.00 18 1012.0
20200926035939 89 0 2.0 5.0 0.00 0.00 0.00 18 1011.9
20200926035443 89 32 2.0 4.0 0.00 0.00 0.00 18 1011.9
20200926034939 88 24 1.0 3.0 0.00 0.00 0.00 19 1011.9
20200926034439 87 22 0.0 2.0 0.00 0.00 0.00 19 1011.9
20200926033941 87 22 0.0 2.0 0.00 0.00 0.00 19 1011.9
20200926033442 87 21 1.0 2.0 0.00 0.00 0.00 19 1011.8
20200926032939 87 21 0.0 0.0 0.00 0.00 0.00 19 1011.8
20200926032439 88 22 0.0 1.0 0.00 0.00 0.00 18 1011.7
20200926031441 88 21 1.0 4.0 0.00 0.00 0.00 19 1011.7
20200926030440 87 21 0.0 0.0 0.00 0.00 0.00 19 1011.6
20200926025944 87 22 0.0 0.0 0.00 0.00 0.00 19 1011.6
20200926025439 87 21 0.0 1.0 0.00 0.00 0.00 19 1011.4
20200926024943 88 15 1.0 2.0 0.00 0.00 0.00 19 1011.4
20200926024439 88 17 0.0 1.0 0.00 0.00 0.00 19 1011.3
20200926023942 88 301 0.0 0.0 0.00 0.00 0.00 19 1011.2
20200926022441 89 300 0.0 1.0 0.00 0.00 0.00 18 1011.1
20200926021943 89 281 0.0 0.0 0.00 0.00 0.00 18 1011.1
20200926020944 89 281 0.0 0.0 0.00 0.00 0.00 18 1011.0
20200926020446 89 281 0.0 0.0 0.00 0.00 0.00 18 1011.0
20200926015939 90 281 0.0 0.0 0.00 0.00 0.00 18 1011.0
20200926015439 90 281 0.0 0.0 0.00 0.00 0.00 18 1011.0
20200926014439 91 281 0.0 1.0 0.00 0.00 0.00 17 1011.0
20200926013939 92 279 0.0 0.0 0.00 0.00 0.00 17 1010.9
20200926013439 92 279 0.0 0.0 0.00 0.00 0.00 17 1010.9
20200926012947 93 279 0.0 0.0 0.00 0.00 0.00 16 1010.9
20200926011442 96 279 0.0 2.0 0.00 0.00 0.00 14 1010.9
20200926010939 97 283 2.0 4.0 0.00 0.00 0.00 14 1010.9
20200926010444 97 277 2.0 3.0 0.00 0.00 0.00 14 1010.9
20200926005939 97 273 2.0 5.0 0.00 0.00 0.00 14 1010.9
20200926005442 98 272 3.0 6.0 0.00 0.00 0.00 13 1010.9
20200926004442 98 309 2.0 6.0 0.00 0.00 0.00 13 1010.8
20200926002940 99 237 0.0 4.0 0.00 0.00 0.00 13 1010.9
20200926002442 99 236 4.0 6.0 0.00 0.00 0.00 13 1011.0
20200926001939 100 240 4.0 7.0 0.00 0.00 0.00 12 1010.9
20200926000951 100 0 2.0 6.0 0.00 0.00 0.00 13 1011.0
20200926000443 100 299 2.0 7.0 0.00 0.00 0.00 13 1011.0
20200925235944 100 0 6.0 8.0 0.00 0.00 0.00 13 1010.9
20200925234939 100 268 0.0 9.0 0.00 0.00 0.00 13 1011.0
20200925234440 100 224 4.0 9.0 0.00 0.00 0.00 13 1011.0
20200925233940 101 0 7.0 8.0 0.00 0.00 0.00 13 1011.0
20200925233439 101 299 5.0 6.0 0.00 0.00 0.00 13 1011.0
20200925232940 101 0 5.0 6.0 0.00 0.00 0.00 12 1011.0
20200925232442 101 232 4.0 12.0 0.00 0.00 0.00 12 1010.9
20200925231941 101 238 3.0 10.0 0.00 0.00 0.00 12 1010.9
20200925231442 101 265 5.0 10.0 0.00 0.00 0.00 12 1011.0
20200925230942 101 344 1.0 9.0 0.00 0.00 0.00 13 1011.0
20200925225939 101 254 7.0 8.0 0.00 0.00 0.00 12 1011.0
20200925225440 101 0 5.0 13.0 0.00 0.00 0.00 12 1011.1
20200925224439 102 355 3.0 9.0 0.00 0.00 0.00 12 1011.1
20200925223443 102 292 5.0 9.0 0.00 0.00 0.00 12 1011.2
20200925222943 102 0 7.0 10.0 0.00 0.00 0.00 12 1011.2
20200925222440 102 0 5.0 11.0 0.00 0.00 0.00 12 1011.2
20200925221939 102 0 6.0 10.0 0.00 0.00 0.00 12 1011.2
20200925221440 102 0 12.0 13.0 0.00 0.00 0.00 12 1011.3
20200925220441 102 263 10.0 10.0 0.00 0.00 0.00 12 1011.3
20200925215439 102 255 3.0 11.0 0.00 0.00 0.00 12 1011.4
20200925214942 103 0 6.0 11.0 0.00 0.00 0.00 12 1011.5
20200925213939 102 309 1.0 5.0 0.00 0.00 0.00 12 1011.6
20200925213439 101 171 1.0 6.0 0.00 0.00 0.00 12 1011.6
20200925212940 102 184 3.0 10.0 0.00 0.00 0.00 12 1011.7
20200925212439 102 241 10.0 13.0 0.00 0.00 0.00 12 1011.8
20200925211439 102 317 5.0 9.0 0.00 0.00 0.00 12 1011.9
20200925210945 102 316 5.0 9.0 0.00 0.00 0.00 12 1012.0
20200925210439 102 273 1.0 6.0 0.00 0.00 0.00 12 1011.9
20200925205439 102 264 6.0 8.0 0.00 0.00 0.00 12 1012.1
20200925204942 102 271 6.0 9.0 0.00 0.00 0.00 12 1012.1
20200925203939 102 0 4.0 6.0 0.00 0.00 0.00 12 1012.2
20200925203439 100 257 2.0 9.0 0.00 0.00 0.00 13 1012.4
20200925202941 100 213 5.0 5.0 0.00 0.00 0.00 13 1012.5
20200925202445 100 302 0.0 6.0 0.00 0.00 0.00 13 1012.6
20200925201939 100 247 2.0 10.0 0.00 0.00 0.00 13 1012.7
20200925201442 101 0 8.0 10.0 0.00 0.00 0.00 12 1012.8
20200925200943 101 250 5.0 10.0 0.00 0.00 0.00 12 1012.9
20200925200447 100 0 5.0 6.0 0.00 0.00 0.00 13 1013.0
20200925195440 99 248 1.0 4.0 0.00 0.00 0.00 13 1013.1
20200925194939 100 248 2.0 9.0 0.00 0.00 0.00 13 1013.2
20200925193442 98 232 0.0 7.0 0.00 0.00 0.00 13 1013.3
20200925192939 99 0 2.0 6.0 0.00 0.00 0.00 13 1013.4
20200925191943 98 0 5.0 9.0 0.00 0.00 0.00 14 1013.6
20200925191446 98 173 3.0 7.0 0.00 0.00 0.00 14 1013.6
20200925190941 97 165 0.0 7.0 0.00 0.00 0.00 14 1013.6
20200925190439 98 213 0.0 7.0 0.00 0.00 0.00 13 1013.7
20200925185946 98 0 4.0 8.0 0.00 0.00 0.00 14 1013.7
20200925185444 98 0 4.0 8.0 0.00 0.00 0.00 14 1013.7
20200925184940 98 0 4.0 7.0 0.00 0.00 0.00 14 1013.7
20200925184441 97 262 0.0 7.0 0.00 0.00 0.00 14 1013.8
20200925183939 97 203 1.0 8.0 0.00 0.00 0.00 14 1013.8
20200925183439 97 236 4.0 8.0 0.00 0.00 0.00 14 1013.8
20200925182445 96 153 0.0 8.0 0.00 0.00 0.00 14 1013.9
20200925181940 96 163 3.0 4.0 0.00 0.00 0.00 14 1013.9
20200925181441 97 0 5.0 7.0 0.00 0.00 0.00 14 1014.0
20200925180944 96 188 2.0 8.0 0.00 0.00 0.00 14 1014.0
20200925180440 96 153 3.0 8.0 0.00 0.00 0.00 15 1014.0
20200925175940 96 184 5.0 8.0 0.00 0.00 0.00 15 1014.1
20200925175439 96 0 0.0 11.0 0.00 0.00 0.00 15 1014.1
20200925174939 96 0 5.0 9.0 0.00 0.00 0.00 15 1014.1
20200925174439 95 162 2.0 7.0 0.00 0.00 0.00 15 1014.2
20200925173939 94 217 3.0 6.0 0.00 0.00 0.00 16 1014.1
20200925173442 95 157 3.0 7.0 0.00 0.00 0.00 15 1014.2
20200925172939 94 169 0.0 5.0 0.00 0.00 0.00 15 1014.2
20200925172440 94 149 1.0 8.0 0.00 0.00 0.00 16 1014.1
20200925170440 93 180 0.0 9.0 0.00 0.00 0.00 17 1014.1
20200925165942 93 185 1.0 9.0 0.00 0.00 0.00 17 1014.1
20200925165439 92 171 0.0 7.0 0.00 0.00 0.00 17 1014.0
20200925164942 92 0 3.0 8.0 0.00 0.00 0.00 17 1014.0
20200925164439 92 171 2.0 5.0 0.00 0.00 0.00 17 1014.0
20200925163942 92 186 5.0 8.0 0.00 0.00 0.00 17 1014.0
20200925163439 91 194 4.0 9.0 0.00 0.00 0.00 18 1014.0
20200925161942 90 171 2.0 8.0 0.00 0.00 0.00 18 1013.9
20200925161439 90 160 0.0 6.0 0.00 0.00 0.00 19 1013.9
20200925160940 90 194 1.0 9.0 0.00 0.00 0.00 19 1013.8
20200925155442 89 189 4.0 6.0 0.00 0.00 0.00 19 1013.6
20200925153939 88 171 0.0 5.0 0.00 0.00 0.00 19 1013.6
20200925153440 88 153 1.0 6.0 0.00 0.00 0.00 20 1013.6
20200925152942 87 142 1.0 5.0 0.00 0.00 0.00 20 1013.5
20200925152439 87 0 0.0 6.0 0.00 0.00 0.00 20 1013.5
20200925151939 87 157 0.0 4.0 0.00 0.00 0.00 21 1013.5
20200925151439 86 186 0.0 6.0 0.00 0.00 0.00 21 1013.4
20200925150939 86 0 2.0 5.0 0.00 0.00 0.00 22 1013.4
20200925150446 85 142 0.0 3.0 0.00 0.00 0.00 24 1013.4
20200925145939 84 126 0.0 0.0 0.00 0.00 0.00 26 1013.3
20200925144940 83 125 0.0 0.0 0.00 0.00 0.00 28 1013.3